Location: Cronhütte
(48.9135°N, 9.6869°E)
Time: 03:07:46
(UTC+00:00)

CZ-2C R/B - Pass Details

Date: 23 May 2024
Orbit: 784 x 868 km, 98.3° (Epoch: 19 June)

Event Time Altitude Azimuth Distance (km) Brightness Sun altitude
Exits shadow 02:29:17 10° 212° (SSW) 2,354 4.4 -8.5°
Reaches altitude 10° 02:29:20 10° 213° (SSW) 2,339 4.4 -8.5°
Maximum altitude 02:33:32 25° 268° (W) 1,547 3.7 -8.0°
Drops below altitude 10° 02:37:46 10° 323° (NW) 2,358 5.1 -7.5°
Sets 02:40:32 0° 336° (NNW) 3,299 6.1 -7.1°
